Flag for United Kingdom Weather past 2 weeks in Leicester, England, United Kingdom

Now
54 °F

Light rain. Partly cloudy.


Feels Like: 48 °F
Forecast: 44 / 54 °F
Wind: 23 mph from Southwest

Location: East Midlands

Current Time: Oct 21, 2014 at 6:38:27 AM

Latest Report: Oct 21, 2014 at 6:20 AM


Visibility: N/A

Pressure: 29.39 "Hg

Humidity: 94%

Dew point: 52 °F

Location of LeicesterLocation

Historic Weather in Leicester — Graph

°F

Leicester temperature yesterday

Maximum temperature yesterday: 57 °F (at 12:50 PM)
Minimum temperature yesterday: 52 °F (at 4:20 AM)
Average temperature yesterday: 55 °F

Past Weeks' High & Low Weather Summary

 TemperatureHumidityPressure
High66 °F (Oct 18, 11:50 AM)100% (Oct 6, 9:20 PM)29.95 "Hg (Oct 6, 9:20 PM)
Low36 °F (Oct 12, 7:20 AM)52% (Oct 10, 3:20 PM)29.21 "Hg (Oct 8, 4:20 PM)
Average54 °F87%29.65 "Hg
* Reported Oct 6 5:20 AM — Oct 21 5:20 AM, Leicester, Weather by CustomWeather, © 2014

Note: Actual official high and low records may vary slightly from our data, if they occured in-between our weather recording intervals... More about our weather records

Advertising

Leicester weather history for previous 24 hours

 ConditionsComfort  
Time TempWeatherWind HumidityBarometerVisibility
5:20 AM
Oct 21
54 °FLight rain. Partly cloudy.26 mph94%29.45 "HgN/A
4:50 AM54 °FLight rain. Partly cloudy.24 mph88%29.47 "HgN/A
4:20 AM54 °FLight rain. Partly cloudy.22 mph88%29.50 "HgN/A
3:50 AM54 °FLight rain. Overcast.23 mph94%29.53 "HgN/A
3:20 AM54 °FPartly cloudy.21 mph88%29.56 "HgN/A
2:50 AM54 °FMostly cloudy.20 mph88%29.59 "HgN/A
2:20 AM54 °FLight rain. Mostly cloudy.20 mph94%29.62 "Hg5 mi
1:50 AM54 °FLight rain. Passing clouds.18 mph88%29.65 "HgN/A
1:20 AM54 °FLight rain. Partly cloudy.18 mph88%29.68 "HgN/A
12:50 AM54 °FPassing clouds.17 mph88%29.68 "HgN/A
12:20 AM52 °FClear.16 mph94%29.71 "Hg10 mi
11:50 PM
Oct 20
54 °FPassing clouds.17 mph88%29.74 "HgN/A
11:20 PM52 °FPassing clouds.15 mph94%29.77 "HgN/A
10:50 PM54 °FPassing clouds.15 mph88%29.77 "HgN/A
10:20 PM54 °FPassing clouds.14 mph82%29.80 "HgN/A
9:50 PM54 °FPassing clouds.14 mph82%29.80 "HgN/A
9:20 PM54 °FPassing clouds.12 mph82%29.80 "HgN/A
8:50 PM55 °FPassing clouds.13 mph77%29.83 "HgN/A
8:20 PM55 °FPassing clouds.13 mph77%29.83 "HgN/A
7:50 PM55 °FPassing clouds.13 mph77%29.86 "HgN/A
7:20 PM55 °FPassing clouds.12 mph77%29.86 "HgN/A
6:50 PM55 °FBroken clouds.12 mph82%29.86 "HgN/A
6:20 PM55 °FScattered clouds.10 mph77%29.86 "HgN/A
5:50 PM55 °FBroken clouds.12 mph77%29.86 "HgN/A
5:20 PM57 °FBroken clouds.15 mph72%29.86 "HgN/A
4:50 PM57 °FBroken clouds.13 mph72%29.86 "HgN/A
4:20 PM57 °FBroken clouds.14 mph72%29.89 "HgN/A
3:50 PM57 °FBroken clouds.15 mph72%29.89 "HgN/A
3:20 PM57 °FBroken clouds.13 mph72%29.89 "HgN/A
2:50 PM57 °FBroken clouds.15 mph72%29.89 "HgN/A
2:20 PM57 °FBroken clouds.15 mph72%29.92 "HgN/A
1:50 PM57 °FScattered clouds.16 mph77%29.92 "HgN/A
12:50 PM57 °FScattered clouds.14 mph77%29.92 "HgN/A
12:20 PM55 °FRain. Scattered clouds.12 mph82%29.95 "HgN/A
11:50 AM55 °FScattered clouds.16 mph77%29.95 "HgN/A
11:20 AM55 °FPassing clouds.16 mph82%29.95 "HgN/A
10:50 AM55 °FPassing clouds.13 mph82%29.95 "HgN/A
10:20 AM55 °FPassing clouds.15 mph82%29.95 "HgN/A
9:50 AM54 °FPassing clouds.15 mph88%29.95 "HgN/A
9:20 AM54 °FPassing clouds.14 mph88%29.95 "HgN/A
8:50 AM54 °FPassing clouds.13 mph82%29.95 "HgN/A
8:20 AM54 °FPassing clouds.13 mph88%29.95 "HgN/A
7:50 AM54 °FPassing clouds.14 mph88%29.92 "HgN/A
6:50 AM54 °FPassing clouds.14 mph82%29.95 "HgN/A
6:20 AM52 °FClear.13 mph88%29.95 "Hg10 mi
Weather by CustomWeather, © 2014

See weather overviewHow to use our weather pages